Capitol Logistics 326


CYHZ
Robert L. Stanfield International Airport
Halifax, CA
KMIA
Miami International Airport
Miami, US

Route Details

Aircraft Information
Primary: Boeing 767-300BDSF
Backup: Not Available
Route Data
Distance: 1403nm
Sched. Duration: 3h 39m
Avg. Duration: 3h 88m (+49m)
Times Flown: 7
Recm'd Route: YQI J585 ACK J62 JOANI SAWED J209 ORF J174 DIW SEELO AR22 JORAY HILEY7
Planned Altitude: 34,000ft
Origin Wx: CYHZ 221500Z 09009KT 1SM R14/P6000FT/N -SN DRSN OVC017 M03/M04 A2960 RMK SN5SC3 SLP034
Dest. Wx: KMIA 221453Z 00000KT 10SM SCT029 SCT250 22/15 A3007 RMK AO2 SLP184 T02220150 53014 $
Notes: LOBSTER KING

Financial History
Total Freight: 780,174lbs
Average Load: 111,453lbs/flt
Fuel Used: 322,079lbs
Avg. Fuel Used: 46,011lbs/flt
Fuel Expense: $257,663
Avg. Fuel Expense: $36,809
Avg. Fuel Cost: $0.80/lbs
Total Gross Income: $1,261,061
Pilot Pay: $1,673
Total Expenses: $136,559
Total Revenue: $859,162
Average Revenue: $180,151.51